Regional Weather Roundup
Issued by NWS

Home | Current Version | Previous Version | Text Only | Print | Product List | Glossary Off
Versions: 1 2 3 4 5 6 7 8 9 10 11 12 13 14 15 16 17 18 19 20 21 22 23 24 25 26 27 28 29 30 31 32 33 34 35 36 37 38 39 40 41 42 43 44 45 46 47 48 49 50

958
ASUS44 KLIX 241110
RWRLA
LOUISIANA WEATHER ROUNDUP
NATIONAL WEATHER SERVICE NEW ORLEANS LA
600 AM CDT FRI OCT 24 2014

NOTE: "FAIR" INDICATES FEW OR NO CLOUDS BELOW 12,000 FEET WITH NO
      SIGNIFICANT WEATHER AND/OR OBSTRUCTIONS TO VISIBILITY.
      SKY/WX - SKY CONDITION AND SIGNIFICANT WEATHER.
      TMP - AIR TEMPERATURE.    DP   - DEWPOINT TEMPERATURE.
      RH  - RELATIVE HUMIDITY.  PRES - PRESSURE.
      HX  - HEAT INDEX.         WCI  - WIND CHILL INDEX.

*  THESE STATIONS ARE NOT NWS OR FAA STATIONS AND ARE NOT UNDER
   NWS QUALITY CONTROL.

LAZ040-048-061>063-065-066-069-241200-
SOUTHEAST LOUISIANA

CITY           SKY/WX    TMP DP  RH WIND       PRES   REMARKS
N.O. AUDUBON     N/A     58  53  81 MISG        N/A
N.O. INTL ARPT PTCLDY    60  50  69 NE7       30.09R
N.O. LAKEFRONT CLEAR     62  52  69 NE15      30.09S
N.O. DOWNTOWN* FAIR      61  46  59 N6        30.09R
SLIDELL        PTCLDY    50  48  93 CALM      30.09R
BATON ROUGE    CLEAR     48  47  96 CALM      30.11R
BOOTHVILLE     CLEAR     67  56  67 N5        30.06S
BELLE CHASSE   MOCLDY    53  48  83 CALM      30.08S
BOGALUSA*        N/A     47  45  90 CALM      30.11S
NEW ROADS*     FAIR      48  47  96 NW3       30.11S
GONZALES*      FAIR      51  51 100 CALM      30.09S
HAMMOND*       CLEAR     48  46  93 CALM      30.11S
HOUMA*         CLEAR     53  51  95 CALM      30.09R
PORT FOURCHON* SUNNY     64  57  77 N9        30.10S

$$

LAZ041-044-053-054-241200-
SOUTHWEST LOUISIANA

CITY           SKY/WX    TMP DP  RH WIND       PRES   REMARKS
LAKE CHARLES   CLEAR     52  49  89 N3        30.12S
LAFAYETTE      CLEAR     50  49  96 N6        30.11R
PATTERSON      CLEAR     52  50  93 E3        30.11S
SALT POINT       N/A     56  52  86 VRB3      30.08S
NEW IBERIA     CLEAR     52  49  89 N6        30.11R
CHENAULT AIRPK CLEAR     50  48  93 CALM      30.12R

$$

LAZ027-028-241200-
CENTRAL LOUISIANA

CITY           SKY/WX    TMP DP  RH WIND       PRES   REMARKS
FORT POLK      CLEAR     51  49  92 NE5       30.13R
ALEXANDRIA INT CLEAR     44  43  96 CALM      30.13R
ALEXANDRIA     CLEAR     43  43 100 CALM      30.14R

$$

LAZ001-002-241200-
NORTHWEST LOUISIANA

CITY           SKY/WX    TMP DP  RH WIND       PRES   REMARKS
SHREVEPORT     CLEAR     50  48  93 CALM      30.15R
BARKSDALE AFB  CLEAR     48  47  97 CALM      30.16R
DTN SHREVEPORT CLEAR     49  48  97 CALM      30.16R

$$

LAZ014-016-241200-
NORTHEAST LOUISIANA

CITY           SKY/WX    TMP DP  RH WIND       PRES   REMARKS
MONROE         FOG       46  44  93 CALM      30.16S VSB 3/4
TALLULAH       CLEAR     39  37  92 NW3       30.14S FOG

$$




USA.gov is the U.S. government's official web portal to all federal, state and local government web resources and services.